FW7730 Weather Reports


time (UTC)temp
C
wind
direction
speed
KPH
gust
KPH
rain 1hr
cm
rain 24hr
cm
rain mn
cm
humidity
%
barometer
mb
20260505035542 7 254 3.2 19.3 0.05 0.66 0.66 80 1013.1
20260505035041 7 286 6.4 22.5 0.13 0.66 0.66 80 1013.0
20260505034548 7 241 6.4 22.5 0.20 0.66 0.66 81 1013.1
20260505034041 7 246 9.7 22.5 0.25 0.66 0.66 81 1013.1
20260505033541 7 280 8.0 19.3 0.36 0.66 0.66 83 1013.1
20260505033051 7 214 6.4 14.5 0.43 0.66 0.66 83 1013.2
20260505032541 7 234 3.2 17.7 0.48 0.66 0.66 84 1013.3
20260505032043 7 275 8.0 17.7 0.48 0.64 0.64 84 1013.3
20260505031547 7 304 8.0 16.1 0.51 0.64 0.64 85 1013.3
20260505031041 7 315 1.6 14.5 0.51 0.64 0.64 86 1013.3
20260505030543 7 311 4.8 14.5 0.53 0.64 0.64 86 1013.2
20260505030049 7 286 3.2 14.5 0.53 0.64 0.64 86 1013.3
20260505025541 7 297 6.4 14.5 0.51 0.61 0.61 85 1013.1
20260505025043 7 278 6.4 14.5 0.43 0.53 0.53 85 1013.1
20260505024606 8 257 4.8 20.9 0.36 0.46 0.46 84 1013.0
20260505024044 8 287 6.4 20.9 0.30 0.41 0.41 82 1013.1
20260505023541 8 308 9.7 17.7 0.20 0.30 0.30 80 1012.9
20260505023050 8 288 8.0 16.1 0.13 0.23 0.23 79 1012.9
20260505022541 9 271 6.4 14.5 0.08 0.18 0.18 77 1012.7
20260505022041 9 242 6.4 14.5 0.05 0.15 0.15 75 1012.6
20260505021603 10 288 4.8 12.9 0.03 0.13 0.13 72 1012.4
20260505021041 10 277 4.8 12.9 0.03 0.13 0.13 70 1012.3
20260505020541 10 302 1.6 8.0 0.00 0.10 0.10 69 1012.2
20260505020049 10 0 0.0 0.0 0.00 0.10 0.10 68 1012.2
20260505015541 11 0 0.0 6.4 0.00 0.10 0.10 66 1012.3
20260505015041 11 0 0.0 9.7 0.00 0.10 0.10 64 1012.0
20260505014549 11 0 0.0 12.9 0.00 0.10 0.10 63 1012.0
20260505014041 11 309 3.2 12.9 0.00 0.10 0.10 63 1011.8
20260505013542 11 343 3.2 16.1 0.00 0.10 0.10 64 1011.7
20260505013049 11 321 6.4 16.1 0.00 0.10 0.10 64 1011.6
20260505012541 11 340 4.8 20.9 0.00 0.10 0.10 64 1011.5
20260505012041 11 355 4.8 20.9 0.00 0.10 0.10 63 1011.7
20260505011555 11 355 6.4 22.5 0.00 0.10 0.10 63 1011.6
20260505011041 11 352 11.3 22.5 0.00 0.10 0.10 63 1011.4
20260505010541 11 351 9.7 27.4 0.00 0.10 0.10 62 1011.6
20260505010045 12 360 11.3 27.4 0.00 0.10 0.10 58 1011.5
20260505005541 13 59 4.8 27.4 0.00 0.10 0.10 56 1011.3
20260505005041 13 57 3.2 9.7 0.00 0.10 0.10 53 1011.4
20260505004548 13 11 1.6 6.4 0.00 0.10 0.10 52 1011.4
20260505004040 13 5 1.6 6.4 0.00 0.10 0.10 52 1011.4
20260505003541 13 5 0.0 6.4 0.00 0.10 0.10 54 1011.3
20260505003046 13 5 1.6 6.4 0.00 0.10 0.10 55 1011.3
20260505002540 13 0 0.0 6.4 0.00 0.10 0.10 56 1011.3
20260505002040 13 0 1.6 6.4 0.00 0.10 0.10 55 1011.4
20260505001549 13 0 3.2 6.4 0.00 0.10 0.10 56 1011.4
20260505001042 13 0 1.6 8.0 0.00 0.10 0.10 59 1011.3
20260505000541 13 339 1.6 8.0 0.00 0.10 0.10 61 1011.3
20260505000049 13 333 3.2 8.0 0.00 0.10 0.10 62 1011.2
20260504235541 12 26 3.2 9.7 0.00 0.10 0.10 62 1011.2
20260504235042 12 25 0.0 11.3 0.00 0.10 0.10 63 1011.1
20260504234548 13 73 3.2 11.3 0.00 0.10 0.10 59 1011.2
20260504234045 13 44 0.0 4.8 0.00 0.10 0.10 53 1011.3
20260504233542 13 0 0.0 4.8 0.03 0.10 0.10 53 1011.3
20260504233057 13 0 0.0 3.2 0.03 0.10 0.10 54 1011.3
20260504232614 13 0 0.0 4.8 0.03 0.10 0.10 51 1011.1
20260504232041 13 0 0.0 4.8 0.03 0.10 0.10 61 1011.1
20260504231551 13 22 0.0 4.8 0.03 0.10 0.10 57 1011.1
20260504231041 13 0 0.0 4.8 0.03 0.10 0.10 58 1011.1
20260504230541 13 345 0.0 3.2 0.03 0.10 0.10 55 1010.9
20260504230048 12 0 0.0 6.4 0.03 0.10 0.10 53 1010.9
20260504225541 12 0 0.0 6.4 0.03 0.10 0.10 60 1011.2
20260504225041 12 342 3.2 11.3 0.03 0.10 0.10 62 1011.2
20260504224551 12 332 1.6 29.0 0.03 0.10 0.10 63 1011.1
20260504224043 12 257 4.8 29.0 0.03 0.10 0.10 60 1011.4
20260504223541 13 194 11.3 24.1 0.00 0.08 0.08 55 1011.5
20260504223102 14 238 1.6 9.7 0.00 0.08 0.08 43 1011.5
20260504222541 14 0 1.6 9.7 0.00 0.08 0.08 42 1011.5
20260504222042 14 292 1.6 9.7 0.00 0.08 0.08 44 1011.6
20260504221603 14 292 1.6 9.7 0.00 0.08 0.08 46 1011.4
20260504221041 14 336 1.6 11.3 0.00 0.08 0.08 46 1011.1
20260504220542 14 325 3.2 16.1 0.00 0.08 0.08 44 1010.7
20260504220117 14 360 6.4 17.7 0.00 0.08 0.08 46 1010.2
20260504215541 14 22 8.0 19.3 0.00 0.08 0.08 46 1009.8
20260504215041 15 32 8.0 19.3 0.00 0.08 0.08 48 1009.7
20260504214549 14 355 8.0 19.3 0.00 0.08 0.08 47 1009.6
20260504214041 14 60 8.0 22.5 0.00 0.08 0.08 50 1009.8
20260504213541 14 32 9.7 30.6 0.05 0.08 0.08 50 1009.8
20260504213103 14 13 12.9 30.6 0.08 0.08 0.08 50 1010.0
20260504212542 14 33 14.5 30.6 0.08 0.08 0.08 49 1010.2
20260504212040 14 352 12.9 29.0 0.08 0.08 0.08 54 1010.0
20260504211550 13 9 9.7 27.4 0.08 0.08 0.08 55 1009.9
20260504211041 14 355 12.9 32.2 0.08 0.08 0.08 53 1010.1
20260504210541 14 14 11.3 32.2 0.08 0.08 0.08 52 1010.2
20260504210048 15 26 11.3 29.0 0.08 0.08 0.08 54 1010.1
20260504205541 14 34 11.3 40.2 0.08 0.08 0.08 55 1010.2
20260504205040 13 327 14.5 40.2 0.08 0.08 0.08 57 1010.2
20260504204601 12 34 9.7 45.1 0.08 0.08 0.08 55 1009.9
20260504204040 14 71 16.1 45.1 0.08 0.08 0.08 50 1010.3
20260504203540 17 344 24.1 37.0 0.03 0.03 0.03 36 1009.7
20260504203046 20 47 6.4 19.3 0.00 0.00 0.00 25 1010.0
20260504202540 20 336 6.4 14.5 0.00 0.00 0.00 24 1009.3
20260504202044 20 318 6.4 16.1 0.00 0.00 0.00 24 1009.2
20260504201549 20 252 8.0 24.1 0.00 0.00 0.00 26 1009.2
20260504201041 20 275 8.0 24.1 0.00 0.00 0.00 26 1009.2
20260504200544 20 208 11.3 22.5 0.00 0.00 0.00 25 1009.3
20260504195540 20 215 8.0 27.4 0.00 0.00 0.00 24 1009.3
20260504195041 20 246 8.0 29.0 0.00 0.00 0.00 24 1009.2
20260504194546 20 272 12.9 29.0 0.00 0.00 0.00 24 1009.4
20260504194041 20 216 14.5 29.0 0.00 0.00 0.00 20 1009.3
20260504193541 21 211 11.3 29.0 0.00 0.00 0.00 20 1009.2
20260504193046 21 194 4.8 25.7 0.00 0.00 0.00 20 1009.2
20260504192540 21 269 9.7 25.7 0.00 0.00 0.00 20 1009.2
20260504192041 21 229 1.6 12.9 0.00 0.00 0.00 22 1009.1
20260504191549 20 235 1.6 17.7 0.00 0.00 0.00 20 1009.1
20260504191040 20 200 3.2 20.9 0.00 0.00 0.00 20 1009.2
20260504190541 20 277 4.8 20.9 0.00 0.00 0.00 21 1009.2
20260504190049 21 313 4.8 19.3 0.00 0.00 0.00 20 1009.2
20260504185541 20 331 8.0 22.5 0.00 0.00 0.00 20 1009.3
20260504185041 21 355 9.7 22.5 0.00 0.00 0.00 20 1009.2
20260504184555 21 336 4.8 19.3 0.00 0.00 0.00 20 1009.3
20260504184041 21 355 3.2 19.3 0.00 0.00 0.00 21 1009.4
20260504183541 21 347 6.4 20.9 0.00 0.00 0.00 22 1009.5
20260504183049 20 317 6.4 20.9 0.00 0.00 0.00 21 1009.6
20260504182540 20 303 8.0 17.7 0.00 0.00 0.00 22 1009.8
20260504182040 20 226 6.4 17.7 0.00 0.00 0.00 23 1009.8
20260504181553 20 277 6.4 25.7 0.00 0.00 0.00 23 1009.9
20260504181041 20 268 4.8 25.7 0.00 0.00 0.00 23 1010.1
20260504180544 20 221 11.3 22.5 0.00 0.00 0.00 22 1010.2
20260504180044 20 253 6.4 19.3 0.00 0.00 0.00 24 1010.4
20260504175540 20 254 4.8 20.9 0.00 0.00 0.00 24 1010.4
20260504175043 20 270 11.3 25.7 0.00 0.00 0.00 25 1010.5
20260504174549 20 312 11.3 25.7 0.00 0.00 0.00 25 1010.6
20260504174040 19 168 9.7 24.1 0.00 0.00 0.00 26 1010.7
20260504173539 18 326 12.9 24.1 0.00 0.00 0.00 27 1010.9
20260504173048 18 216 9.7 22.5 0.00 0.00 0.00 28 1010.8
20260504172540 17 309 9.7 20.9 0.00 0.00 0.00 28 1011.0
20260504172041 17 205 8.0 20.9 0.00 0.00 0.00 28 1011.1
20260504171547 17 267 9.7 22.5 0.00 0.00 0.00 28 1011.1
20260504171041 17 309 9.7 22.5 0.00 0.00 0.00 28 1011.1
20260504170541 16 267 8.0 22.5 0.00 0.00 0.00 28 1011.2
20260504151042 16 286 6.4 16.1 0.00 0.00 0.00 28 1011.3
20260504150540 16 196 6.4 16.1 0.00 0.00 0.00 27 1011.3
20260504141040 15 0 0.0 8.0 0.00 0.00 0.00 26 1011.3
20260504140543 14 242 3.2 8.0 0.00 0.00 0.00 26 1011.3
20260504130544 11 288 11.3 19.3 0.00 0.00 0.00 28 1011.2
20260504110544 8 318 3.2 8.0 0.00 0.00 0.00 33 1010.9
20260504100543 8 347 1.6 12.9 0.00 0.00 0.00 33 1011.1
20260504081552 8 275 6.4 16.1 0.00 0.00 0.00 33 1011.9
20260504081043 9 297 6.4 14.5 0.00 0.00 0.00 32 1012.1
20260504080543 9 279 4.8 12.9 0.00 0.00 0.00 32 1012.2
20260504050543 13 267 11.3 19.3 0.00 0.00 0.00 27 1012.8
20260504045542 13 276 11.3 17.7 0.00 0.00 0.00 26 1012.7
20260504045043 14 331 9.7 16.1 0.00 0.00 0.00 27 1012.7
20260504044554 14 291 11.3 16.1 0.00 0.00 0.00 26 1012.7
20260504044043 14 300 8.0 17.7 0.00 0.00 0.00 26 1012.7
20260504043544 14 290 9.7 19.3 0.00 0.00 0.00 27 1012.7
20260504043057 14 297 6.4 19.3 0.00 0.00 0.00 27 1012.8
20260504042544 15 279 9.7 19.3 0.00 0.00 0.00 26 1012.8
20260504042042 15 263 8.0 17.7 0.00 0.00 0.00 26 1012.9
20260504041552 15 294 8.0 17.7 0.00 0.00 0.00 26 1012.9
20260504041042 16 286 8.0 24.1 0.00 0.00 0.00 24 1012.9
20260504040542 16 302 9.7 24.1 0.00 0.00 0.00 24 1013.0
20260504040055 16 285 8.0 29.0 0.00 0.00 0.00 24 1013.1